Погода в Колумбии

США     39°13′14″N   76°51′34″W
темп.,
°C
ветер,
м/с
пор.,
м/с
влажн.,
%
обл.,
%
осадки,
мм/ч
давл.,
гПа
погр.,
м
17 сентября, пт
пт1723:00+23всв3688100 0.0 1022486
02:00+22св3690100 0.0 1021341
05:00+21св3692100 0.0 1021371
08:00+21св368896 0.0 1022405
11:00+25св347122 0.0 1022750
14:00+27всв446061 0.5 10211251
17:00+27св346133 0.7 10191171
20:00+24св247957 0.9 1019423
18 сентября, сб
сб1823:00+23ссв138632 0.1 1019194
02:00+22с12890 0.1 101991
05:00+21ссз12900 0.0 101977
08:00+21сз12850 0.0 1019164
11:00+27ссз23595 0.0 1019990
14:00+30ссз234721 0.0 10171724
17:00+30ссз344911 0.1 10161750
20:00+26з11610 0.1 101814
19 сентября, вс
вс1923:00+24з12682 0.0 101841
02:00+23сз23730 0.0 1019116
05:00+22ссв27720 0.0 1020293
08:00+21ссв36704 0.0 1021311
11:00+26ссв33455 0.0 1023970
14:00+29ссв333610 0.0 10211604
17:00+28ссв32365 0.0 10201576
20:00+24всв255024 0.0 1022347
20 сентября, пн
пн2023:00+22всв245681 0.0 1023195
02:00+21в2364100 0.0 1024217
05:00+20вюв137090 0.0 1024143
08:00+20вюв246782 0.0 1025312
11:00+24вюв344676 0.0 1026930
14:00+27юв4438100 0.0 10251309
17:00+25юв354262 0.0 10241244
20:00+23юв3761100 0.0 1025655
21 сентября, вт
вт2123:00+21юв3870100 0.0 1025626
02:00+20юв3875100 0.0 1025586
05:00+19юв2780100 0.0 1025453
08:00+20юв3679100 0.0 1025424
11:00+23юв4564100 0.0 10251138
14:00+26ююв455299 0.0 10231500
17:00+26ююв4551100 0.0 10211209
20:00+23ю3764100 0.0 1021429